Weather History for EICK - January, 2013

Change the Weather History Date:

Tuesday, January 15, 2013

  Actual Average Record
Temperature  
Mean Temperature 40 °F -  
Max Temperature 43 °F 46 °F 51 °F (1999)
Min Temperature 36 °F 37 °F 30 °F (2000)
Degree Days  
Heating Degree Days 26    
Moisture  
Dew Point 38 °F    
Average Humidity 91    
Maximum Humidity 100    
Minimum Humidity 69    
Precipitation  
Precipitation 0.12 in 0.17 in - ()
Sea Level Pressure  
Sea Level Pressure 29.87 in    
Wind  
Wind Speed 8 mph ()    
Max Wind Speed 16 mph    
Max Gust Speed -    
Visibility 6.7 miles    
Events Rain    
Averages and records for this station are not official NWS values.
T = Trace of Precipitation, MM = Missing Value Source: Averaged Metar Reports

Daily Weather History Graph

Daily Weather History Graph

Search for Another Location

Airport or City:

Trip Planner

Search our weather history database for the weather conditions in past years. The results will help you decide how hot, cold, wet, or windy it might be!

Date:

Astronomy

Jan. 15, 2013 Rise Set
Actual Time 8:34 AM GMT 4:53 PM GMT
Civil Twilight 7:55 AM GMT 5:31 PM GMT
Nautical Twilight 7:13 AM GMT 6:14 PM GMT
Astronomical Twilight 6:32 AM GMT 6:54 PM GMT
Moon 9:56 AM GMT (1/15) 10:08 PM GMT (1/15)
Length of Visible Light 9h 36m
Length of Day
8h 18m
Waxing Crescent, 17% of the Moon is Illuminated
Jan 15
Waxing Crescent
Jan 18
First Quarter
Jan 27
Full
Feb 3
Last Quarter
Feb 10
New

Hourly Weather History & Observations

Time (GMT) Temp. Windchill Dew Point Humidity Pressure Visibility Wind Dir Wind Speed Gust Speed Precip Events Conditions
12:00 AM - - - % 30.01 in 19 mi NW 15.7 mph - -   Scattered Clouds
12:00 AM 39.2 °F 32.0 °F 33.8 °F 81% 29.98 in 6.2 mi NW 11.5 mph - N/A   Partly Cloudy
12:30 AM 37.4 °F 30.8 °F 33.8 °F 87% 29.98 in 6.2 mi WNW 9.2 mph - N/A   Partly Cloudy
1:00 AM 37.4 °F 33.8 °F 33.8 °F 87% 29.98 in 6.2 mi West 4.6 mph - N/A   Partly Cloudy
1:30 AM 37.4 °F 33.8 °F 33.8 °F 87% 29.98 in 6.2 mi West 4.6 mph - N/A   Partly Cloudy
2:00 AM 37.4 °F 31.4 °F 33.8 °F 87% 29.98 in 6.2 mi WNW 8.1 mph - N/A   Partly Cloudy
2:30 AM 37.4 °F 30.3 °F 35.6 °F 93% 29.98 in 6.2 mi NW 10.4 mph - N/A   Partly Cloudy
3:00 AM 37.4 °F 31.4 °F 35.6 °F 93% 29.98 in 6.2 mi WNW 8.1 mph - N/A   Partly Cloudy
3:30 AM 37.4 °F 30.8 °F 35.6 °F 93% 29.98 in 6.2 mi WNW 9.2 mph - N/A   Partly Cloudy
4:00 AM 37.4 °F 30.3 °F 33.8 °F 87% 29.98 in 6.2 mi WNW 10.4 mph - N/A   Partly Cloudy
4:30 AM 37.4 °F 31.4 °F 33.8 °F 87% 29.98 in 6.2 mi WNW 8.1 mph - N/A   Partly Cloudy
5:00 AM 37.4 °F 31.4 °F 33.8 °F 87% 29.98 in 6.2 mi WNW 8.1 mph - N/A   Partly Cloudy
5:30 AM 37.4 °F 33.8 °F 35.6 °F 93% 29.98 in 6.2 mi WNW 4.6 mph - N/A   Mostly Cloudy
6:00 AM 37 °F - 35 °F 90% 30.01 in 19 mi West 6.7 mph - -   Scattered Clouds
6:00 AM 37.4 °F 32.8 °F 35.6 °F 93% 29.98 in 6.2 mi West 5.8 mph - N/A   Mostly Cloudy
6:30 AM 37.4 °F 32.1 °F 35.6 °F 93% 29.98 in 6.2 mi WNW 6.9 mph - N/A   Mostly Cloudy
7:00 AM 37.4 °F 32.1 °F 35.6 °F 93% 29.98 in 6.2 mi WNW 6.9 mph - N/A   Mostly Cloudy
7:30 AM 37.4 °F 32.8 °F 35.6 °F 93% 29.98 in 6.2 mi WNW 5.8 mph - N/A   Mostly Cloudy
8:00 AM 37.4 °F 33.8 °F 35.6 °F 93% 29.95 in 6.2 mi West 4.6 mph - N/A   Mostly Cloudy
8:30 AM 37.4 °F 32.8 °F 35.6 °F 93% 29.98 in 6.2 mi West 5.8 mph - N/A   Mostly Cloudy
9:00 AM 39.2 °F 35.9 °F 35.6 °F 87% 29.95 in 6.2 mi WNW 4.6 mph - N/A   Scattered Clouds
9:30 AM 39.2 °F 37.0 °F 35.6 °F 87% 29.95 in 6.2 mi WNW 3.5 mph - N/A   Scattered Clouds
10:00 AM 39.2 °F - 37.4 °F 93% 29.95 in 6.2 mi West 2.3 mph - N/A   Mostly Cloudy
10:30 AM 41.0 °F - 37.4 °F 87% 29.95 in 6.2 mi West 2.3 mph - N/A   Mostly Cloudy
11:00 AM 41.0 °F - 37.4 °F 87% 29.95 in 6.2 mi WNW 1.2 mph - N/A   Mostly Cloudy
11:30 AM 42.8 °F - 37.4 °F 81% 29.92 in 6.2 mi NNE 2.3 mph - N/A   Mostly Cloudy
12:00 PM 44 °F - 37 °F 69% 29.95 in 25 mi SW 2.2 mph - -   Scattered Clouds
12:00 PM 42.8 °F - 37.4 °F 81% 29.92 in 6.2 mi SW 2.3 mph - N/A   Mostly Cloudy
12:30 PM 42.8 °F - 39.2 °F 87% 29.92 in 6.2 mi South 2.3 mph - N/A   Mostly Cloudy
1:00 PM 42.8 °F 41.1 °F 37.4 °F 81% 29.89 in 6.2 mi SE 3.5 mph - N/A   Mostly Cloudy
1:30 PM 42.8 °F 40.1 °F 37.4 °F 81% 29.86 in 6.2 mi SSE 4.6 mph - N/A   Mostly Cloudy
2:00 PM 42.8 °F 40.1 °F 39.2 °F 87% 29.86 in 6.2 mi South 4.6 mph - N/A   Mostly Cloudy
2:30 PM 42.8 °F 39.3 °F 37.4 °F 81% 29.83 in 6.2 mi SSE 5.8 mph - N/A   Mostly Cloudy
3:00 PM 42.8 °F 38.6 °F 39.2 °F 87% 29.83 in 6.2 mi SSE 6.9 mph - N/A   Mostly Cloudy
3:30 PM 42.8 °F 37.5 °F 39.2 °F 87% 29.80 in 6.2 mi SE 9.2 mph - N/A   Mostly Cloudy
4:00 PM 41.0 °F 35.2 °F 39.2 °F 93% 29.80 in 6.2 mi SE 9.2 mph - N/A   Mostly Cloudy
4:30 PM 41.0 °F 34.7 °F 39.2 °F 93% 29.77 in 6.2 mi SE 10.4 mph - N/A   Mostly Cloudy
5:00 PM 41.0 °F 34.3 °F 39.2 °F 93% 29.77 in 6.2 mi SE 11.5 mph - N/A Rain Light Rain
5:30 PM 41.0 °F 33.9 °F 39.2 °F 93% 29.74 in 6.2 mi SE 12.7 mph - N/A Rain Light Rain
6:00 PM 41 °F - 40 °F 94% 29.77 in 12 mi SE 11.2 mph - - Rain Light Rain
6:00 PM 41.0 °F 34.7 °F 39.2 °F 93% 29.74 in 6.2 mi SE 10.4 mph - N/A Rain Light Rain
6:30 PM 41.0 °F 34.3 °F 41.0 °F 100% 29.74 in 6.2 mi SE 11.5 mph - N/A Rain Light Rain
7:00 PM 41.0 °F 34.3 °F 41.0 °F 100% 29.71 in 6.2 mi ESE 11.5 mph - N/A Rain Light Rain
7:30 PM 41.0 °F 33.9 °F 41.0 °F 100% 29.68 in 6.2 mi ESE 12.7 mph - N/A Rain Light Rain
8:00 PM 42.8 °F 35.8 °F 41.0 °F 93% 29.68 in 6.2 mi ESE 13.8 mph - N/A Rain Light Rain
8:30 PM 42.8 °F 35.4 °F 42.8 °F 100% 29.65 in 6.2 mi ESE 15.0 mph - N/A Rain Light Rain
9:00 PM 42.8 °F 35.4 °F 42.8 °F 100% 29.65 in 6.2 mi ESE 15.0 mph - N/A Rain Light Rain
9:30 PM 42.8 °F 35.8 °F 42.8 °F 100% 29.65 in 6.2 mi ESE 13.8 mph - N/A Rain Light Rain
10:00 PM 42.8 °F 35.8 °F 42.8 °F 100% 29.62 in 6.2 mi ESE 13.8 mph - N/A Rain Light Rain
10:30 PM 42.8 °F 35.4 °F 42.8 °F 100% 29.62 in 6.2 mi ESE 15.0 mph - N/A Rain Light Rain
11:00 PM 42.8 °F 35.8 °F 42.8 °F 100% 29.62 in 3.1 mi ESE 13.8 mph - N/A Rain Light Rain
11:30 PM 42.8 °F 35.4 °F 42.8 °F 100% 29.62 in 3.1 mi East 15.0 mph - N/A Rain Light Rain